TimeAST,TemperatureF,Dew PointF,Humidity,Sea Level PressureIn,VisibilityMPH,Wind Direction,Wind SpeedMPH,Gust SpeedMPH,PrecipitationIn,Events,Conditions,WindDirDegrees,DateUTC
12:00 AM,80.6,73.4,79,30.01,-9999.0,North,-9999.0,-,N/A,,Unknown,0,2013-01-04 04:00:00
1:00 AM,80.6,73.4,79,29.98,-9999.0,North,-9999.0,-,N/A,,Unknown,0,2013-01-04 05:00:00
2:00 AM,80,72,69,,,East,16.1,,,,Clear,90,2013-01-04 06:00:00
2:00 AM,80.6,71.6,74,29.98,-9999.0,North,-9999.0,-,N/A,,Unknown,0,2013-01-04 06:00:00
3:00 AM,80.6,73.4,79,29.98,-9999.0,North,-9999.0,-,N/A,,Unknown,0,2013-01-04 07:00:00
4:00 AM,80.6,71.6,74,29.98,-9999.0,North,-9999.0,-,N/A,,Unknown,0,2013-01-04 08:00:00
5:00 AM,80,72,69,,,East,10.4,,,,Clear,100,2013-01-04 09:00:00
5:00 AM,78.8,71.6,78,29.98,-9999.0,North,-9999.0,-,N/A,,Unknown,0,2013-01-04 09:00:00
6:00 AM,78.8,71.6,78,30.01,-9999.0,North,-9999.0,-,N/A,,Unknown,0,2013-01-04 10:00:00
7:00 AM,78.8,71.6,78,30.01,-9999.0,North,-9999.0,-,N/A,,Unknown,0,2013-01-04 11:00:00
8:00 AM,81,72,67,,,ESE,17.3,,,,Clear,110,2013-01-04 12:00:00
8:00 AM,82.4,73.4,74,30.04,-9999.0,East,15.0,-,N/A,,Unknown,90,2013-01-04 12:00:00
9:00 AM,82.4,75.2,79,30.06,6.2,East,15.0,-,N/A,,Scattered Clouds,80,2013-01-04 13:00:00
10:00 AM,82.4,73.4,74,30.06,-9999.0,East,18.4,-,N/A,,Unknown,80,2013-01-04 14:00:00
11:00 AM,83,73,64,30.08,19,ESE,24.2,,,Rain,Light Rain Showers,110,2013-01-04 15:00:00
11:00 AM,82.4,73.4,74,30.06,6.2,East,23.0,-,N/A,,Scattered Clouds,90,2013-01-04 15:00:00
12:00 PM,86.0,73.4,66,30.04,6.2,East,21.9,-,N/A,,Scattered Clouds,100,2013-01-04 16:00:00
1:00 PM,84.2,73.4,70,30.01,6.2,SE,20.7,-,N/A,,Scattered Clouds,130,2013-01-04 17:00:00
2:00 PM,86.0,73.4,66,29.98,6.2,East,21.9,-,N/A,,Scattered Clouds,100,2013-01-04 18:00:00
3:00 PM,77.0,71.6,83,29.98,6.2,ESE,16.1,-,N/A,Rain,Rain,110,2013-01-04 19:00:00
4:00 PM,-9999,-9999,N/A,29.95,-9999.0,East,16.1,-,N/A,,Unknown,90,2013-01-04 20:00:00
5:00 PM,80.6,73.4,79,29.95,6.2,East,17.3,-,N/A,,Scattered Clouds,100,2013-01-04 21:00:00
6:00 PM,80.6,71.6,74,29.98,6.2,East,16.1,-,N/A,,Scattered Clouds,80,2013-01-04 22:00:00
7:00 PM,78.8,73.4,83,29.98,-9999.0,East,11.5,-,N/A,,Unknown,80,2013-01-04 23:00:00
8:00 PM,80.6,73.4,79,29.98,-9999.0,East,15.0,-,N/A,,Unknown,90,2013-01-05 00:00:00
9:00 PM,-9999,-9999,N/A,30.01,-9999.0,East,13.8,-,N/A,,Unknown,80,2013-01-05 01:00:00
11:00 PM,80,74,77,,6,East,12.7,,,,Clear,80,2013-01-05 03:00:00
11:00 PM,78.8,73.4,83,30.01,-9999.0,East,12.7,-,N/A,,Unknown,80,2013-01-05 03:00:00